EW0890 Weather Reports


time (UTC)temp
C
wind
direction
speed
KPH
gust
KPH
rain 1hr
cm
rain 24hr
cm
rain mn
cm
humidity
%
barometer
mb
20260906195004 27 77 11.3 19.3 0.00 0.00 0.00 60 1017.8
20260906194604 27 78 9.7 16.1 0.00 0.00 0.00 61 1017.9
20260906194508 27 71 8.0 16.1 0.00 0.00 0.00 61 1017.8
20260906194005 27 82 6.4 19.3 0.00 0.00 0.00 63 1017.8
20260906193506 27 69 8.0 19.3 0.00 0.00 0.00 64 1017.9
20260906193104 26 91 8.0 19.3 0.00 0.00 0.00 64 1018.0
20260906193014 26 64 6.4 19.3 0.00 0.00 0.00 62 1017.9
20260906192505 27 62 11.3 19.3 0.00 0.00 0.00 60 1018.0
20260906192007 26 58 8.0 20.9 0.00 0.00 0.00 62 1017.9
20260906191604 26 81 11.3 20.9 0.00 0.00 0.00 63 1018.1
20260906191523 26 56 11.3 20.9 0.00 0.00 0.00 63 1017.9
20260906191009 26 65 6.4 16.1 0.00 0.00 0.00 65 1018.0
20260906190509 26 59 8.0 16.1 0.00 0.00 0.00 65 1018.0
20260906190113 26 59 9.7 16.1 0.00 0.00 0.00 63 1018.2
20260906190027 26 72 9.7 16.1 0.00 0.00 0.00 63 1018.0
20260906185512 26 44 11.3 19.3 0.00 0.00 0.00 63 1017.9
20260906185014 26 68 9.7 19.3 0.00 0.00 0.00 62 1017.9
20260906184606 26 68 8.0 17.7 0.00 0.00 0.00 62 1018.2
20260906184533 26 65 8.0 17.7 0.00 0.00 0.00 64 1018.0
20260906184004 27 85 9.7 17.7 0.00 0.00 0.00 63 1018.1
20260906183504 26 60 11.3 17.7 0.00 0.00 0.00 63 1018.2
20260906183114 26 89 11.3 17.7 0.00 0.00 0.00 65 1018.4
20260906183008 26 103 11.3 17.7 0.00 0.00 0.00 65 1018.3
20260906182504 26 56 8.0 16.1 0.00 0.00 0.00 66 1018.2
20260906182007 26 67 9.7 20.9 0.00 0.00 0.00 63 1018.1
20260906181602 26 65 8.0 20.9 0.00 0.00 0.00 63 1018.5
20260906181516 26 55 8.0 20.9 0.00 0.00 0.00 66 1018.2
20260906181007 26 86 12.9 17.7 0.00 0.00 0.00 64 1018.2
20260906180507 26 87 9.7 17.7 0.00 0.00 0.00 64 1018.3
20260906180126 26 57 11.3 17.7 0.00 0.00 0.00 68 1018.6
20260906180024 26 78 9.7 17.7 0.00 0.00 0.00 66 1018.2
20260906175511 26 101 9.7 17.7 0.00 0.00 0.00 68 1018.2
20260906175014 26 88 11.3 19.3 0.00 0.00 0.00 66 1018.3
20260906174605 26 81 11.3 19.3 0.00 0.00 0.00 66 1018.5
20260906174530 26 93 11.3 19.3 0.00 0.00 0.00 67 1018.4
20260906174014 26 68 9.7 17.7 0.00 0.00 0.00 69 1018.4
20260906173514 26 72 11.3 17.7 0.00 0.00 0.00 68 1018.4
20260906173119 26 77 9.7 17.7 0.00 0.00 0.00 67 1018.7
20260906173030 26 88 11.3 17.7 0.00 0.00 0.00 68 1018.6
20260906172503 26 69 11.3 17.7 0.00 0.00 0.00 68 1018.7
20260906172004 26 94 11.3 17.7 0.00 0.00 0.00 70 1018.7
20260906171605 25 63 11.3 16.1 0.00 0.00 0.00 71 1018.8
20260906171512 25 82 11.3 16.1 0.00 0.00 0.00 71 1018.7
20260906171006 25 79 9.7 14.5 0.00 0.00 0.00 71 1018.7
20260906170507 25 67 11.3 17.7 0.00 0.00 0.00 71 1018.8
20260906170128 25 75 9.7 17.7 0.00 0.00 0.00 71 1019.1
20260906170016 25 85 8.0 17.7 0.00 0.00 0.00 72 1018.8
20260906165510 25 76 11.3 17.7 0.00 0.00 0.00 70 1019.0
20260906165011 25 68 11.3 19.3 0.00 0.00 0.00 71 1019.1
20260906164606 25 61 11.3 20.9 0.00 0.00 0.00 73 1019.3
20260906164533 25 97 11.3 20.9 0.00 0.00 0.00 73 1019.2
20260906164012 25 81 9.7 20.9 0.00 0.00 0.00 72 1019.3
20260906163513 25 67 9.7 17.7 0.00 0.00 0.00 72 1019.2
20260906163104 25 86 11.3 17.7 0.00 0.00 0.00 71 1019.2
20260906163028 25 72 11.3 17.7 0.00 0.00 0.00 72 1019.1
20260906162518 25 60 9.7 16.1 0.00 0.00 0.00 75 1018.9
20260906162013 25 57 9.7 20.9 0.00 0.00 0.00 74 1018.9
20260906161611 25 70 9.7 20.9 0.00 0.00 0.00 72 1019.0
20260906161508 25 72 9.7 20.9 0.00 0.00 0.00 72 1018.8
20260906161005 25 91 11.3 17.7 0.00 0.00 0.00 73 1018.8
20260906160506 25 72 11.3 17.7 0.00 0.00 0.00 73 1018.8
20260906160101 25 67 11.3 17.7 0.00 0.00 0.00 72 1019.0
20260906160013 25 60 11.3 17.7 0.00 0.00 0.00 73 1018.8
20260906155510 25 88 12.9 20.9 0.00 0.00 0.00 73 1018.7
20260906155009 25 65 11.3 20.9 0.00 0.00 0.00 73 1018.8
20260906154603 25 43 11.3 17.7 0.00 0.00 0.00 75 1019.0
20260906154518 25 85 9.7 17.7 0.00 0.00 0.00 74 1019.1
20260906154012 25 91 8.0 16.1 0.00 0.00 0.00 75 1018.9
20260906153509 25 64 9.7 19.3 0.00 0.00 0.00 74 1018.9
20260906153104 24 57 9.7 19.3 0.00 0.00 0.00 74 1018.9
20260906153028 24 70 9.7 19.3 0.00 0.00 0.00 72 1018.8
20260906152512 24 71 9.7 19.3 0.00 0.00 0.00 75 1018.7
20260906152015 24 89 8.0 19.3 0.00 0.00 0.00 76 1018.7
20260906151613 24 82 9.7 16.1 0.00 0.00 0.00 76 1018.6
20260906151531 24 77 8.0 16.1 0.00 0.00 0.00 76 1018.6
20260906151016 23 63 8.0 16.1 0.00 0.00 0.00 76 1018.6
20260906150516 24 70 9.7 14.5 0.00 0.00 0.00 76 1018.6
20260906150106 23 63 8.0 19.3 0.00 0.00 0.00 76 1018.5
20260906150011 23 86 8.0 19.3 0.00 0.00 0.00 76 1018.5
20260906145504 23 79 9.7 19.3 0.00 0.00 0.00 75 1018.6
20260906145008 23 56 9.7 19.3 0.00 0.00 0.00 76 1018.5
20260906144600 23 86 6.4 16.1 0.00 0.00 0.00 76 1018.4
20260906144520 23 113 8.0 16.1 0.00 0.00 0.00 76 1018.4
20260906144008 23 72 8.0 16.1 0.00 0.00 0.00 77 1018.4
20260906143509 23 98 11.3 16.1 0.00 0.00 0.00 76 1018.5
20260906143130 23 98 8.0 14.5 0.00 0.00 0.00 78 1018.5
20260906143023 23 82 8.0 14.5 0.00 0.00 0.00 79 1018.4
20260906142512 23 82 8.0 14.5 0.00 0.00 0.00 79 1018.3
20260906142014 23 82 8.0 14.5 0.00 0.00 0.00 79 1018.4
20260906141606 23 37 8.0 14.5 0.00 0.00 0.00 79 1018.5
20260906141529 23 73 8.0 14.5 0.00 0.00 0.00 80 1018.5
20260906141013 22 78 6.4 17.7 0.00 0.00 0.00 81 1018.5
20260906140516 22 72 8.0 17.7 0.00 0.00 0.00 82 1018.5
20260906140105 22 77 9.7 16.1 0.00 0.00 0.00 83 1018.5
20260906140030 22 86 9.7 14.5 0.00 0.00 0.00 82 1018.6
20260906135516 22 79 8.0 16.1 0.00 0.00 0.00 84 1018.6
20260906135016 22 86 6.4 16.1 0.00 0.00 0.00 86 1018.6
20260906134612 22 120 8.0 14.5 0.00 0.00 0.00 85 1018.6
20260906134515 22 77 8.0 14.5 0.00 0.00 0.00 86 1018.6
20260906134010 22 78 8.0 14.5 0.00 0.00 0.00 87 1018.6
20260906133508 22 86 8.0 14.5 0.00 0.00 0.00 88 1018.6
20260906133102 21 58 9.7 14.5 0.00 0.00 0.00 89 1018.6
20260906133018 21 89 9.7 14.5 0.00 0.00 0.00 88 1018.6
20260906132510 21 75 6.4 11.3 0.00 0.00 0.00 89 1018.6
20260906132009 21 105 6.4 11.3 0.00 0.00 0.00 90 1018.6
20260906131603 21 65 6.4 12.9 0.00 0.00 0.00 91 1018.6
20260906131523 21 69 6.4 12.9 0.00 0.00 0.00 91 1018.6
20260906131011 21 63 6.4 12.9 0.00 0.00 0.00 91 1018.5
20260906130516 21 78 6.4 11.3 0.00 0.00 0.00 92 1018.5
20260906130115 21 67 6.4 12.9 0.00 0.00 0.00 92 1018.5
20260906130031 21 80 6.4 12.9 0.00 0.00 0.00 92 1018.5
20260906125513 21 67 6.4 12.9 0.00 0.00 0.00 93 1018.5
20260906125019 20 75 4.8 11.3 0.00 0.00 0.00 94 1018.4
20260906124603 20 86 6.4 9.7 0.00 0.00 0.00 94 1018.4
20260906124537 20 86 6.4 9.7 0.00 0.00 0.00 94 1018.3
20260906124016 20 49 4.8 9.7 0.00 0.00 0.00 94 1018.3
20260906123520 20 79 4.8 9.7 0.00 0.00 0.00 95 1018.0
20260906123138 20 70 4.8 9.7 0.00 0.00 0.00 95 1018.1
20260906123024 20 65 4.8 9.7 0.00 0.00 0.00 95 1018.0
20260906122509 20 77 4.8 8.0 0.00 0.00 0.00 96 1018.0
20260906122008 20 67 4.8 9.7 0.00 0.00 0.00 96 1017.8
20260906121604 20 79 6.4 11.3 0.00 0.00 0.00 96 1017.8
20260906121531 20 76 4.8 11.3 0.00 0.00 0.00 96 1017.6
20260906121011 20 69 6.4 11.3 0.00 0.00 0.00 96 1017.5
20260906120515 20 68 4.8 9.7 0.00 0.00 0.00 96 1017.5
20260906120109 20 62 4.8 9.7 0.00 0.00 0.00 96 1017.6
20260906120025 20 59 4.8 9.7 0.00 0.00 0.00 96 1017.5
20260906115514 20 63 4.8 9.7 0.00 0.00 0.00 96 1017.3
20260906115012 20 58 4.8 9.7 0.00 0.00 0.00 96 1017.4
20260906114609 20 72 6.4 9.7 0.00 0.00 0.00 96 1017.5
20260906114532 20 70 4.8 9.7 0.00 0.00 0.00 96 1017.3
20260906114015 20 65 4.8 9.7 0.00 0.00 0.00 96 1017.4
20260906113503 20 60 4.8 8.0 0.00 0.00 0.00 96 1017.2
20260906113104 20 68 4.8 8.0 0.00 0.00 0.00 96 1017.3
20260906113012 20 63 4.8 8.0 0.00 0.00 0.00 96 1017.1
20260906112507 20 68 4.8 8.0 0.00 0.00 0.00 96 1017.0
20260906112008 20 54 4.8 8.0 0.00 0.00 0.00 96 1017.0
20260906111559 20 48 4.8 9.7 0.00 0.00 0.00 96 1017.1
20260906111519 20 61 4.8 9.7 0.00 0.00 0.00 96 1016.9
20260906111009 20 72 6.4 9.7 0.00 0.00 0.00 96 1016.7
20260906110509 21 60 6.4 9.7 0.00 0.00 0.00 95 1016.7
20260906110056 21 68 6.4 11.3 0.00 0.00 0.00 95 1016.8
20260906110025 21 44 6.4 11.3 0.00 0.00 0.00 95 1016.6
20260906105510 21 73 4.8 11.3 0.00 0.00 0.00 95 1016.4
20260906105014 21 78 6.4 11.3 0.00 0.00 0.00 95 1016.3
20260906104601 21 84 6.4 11.3 0.00 0.00 0.00 95 1016.5
20260906104532 21 63 6.4 11.3 0.00 0.00 0.00 95 1016.3
20260906104016 21 70 8.0 11.3 0.00 0.00 0.00 95 1016.4
20260906103516 21 63 6.4 11.3 0.00 0.00 0.00 95 1016.3
20260906103101 21 65 8.0 16.1 0.00 0.00 0.00 94 1016.4
20260906103029 21 76 8.0 12.9 0.00 0.00 0.00 94 1016.2
20260906102507 21 68 6.4 16.1 0.00 0.00 0.00 95 1016.2
20260906102005 21 66 9.7 16.1 0.00 0.00 0.00 94 1016.1
20260906101558 21 68 8.0 12.9 0.00 0.00 0.00 95 1016.3
20260906101518 21 70 8.0 12.9 0.00 0.00 0.00 95 1016.0
20260906101011 21 69 8.0 12.9 0.00 0.00 0.00 95 1016.0
20260906100510 21 53 9.7 12.9 0.00 0.00 0.00 95 1016.0
20260906100027 21 64 9.7 12.9 0.00 0.00 0.00 95 1016.0
20260906095510 21 68 6.4 11.3 0.00 0.00 0.00 96 1016.0
20260906095012 21 84 6.4 11.3 0.00 0.00 0.00 96 1016.1
20260906094608 21 51 6.4 9.7 0.00 0.00 0.00 96 1016.3
20260906094529 21 47 6.4 9.7 0.00 0.00 0.00 96 1016.0
20260906094011 21 66 4.8 8.0 0.00 0.00 0.00 96 1016.1
20260906093516 21 67 4.8 8.0 0.00 0.00 0.00 96 1016.1
20260906093100 21 56 4.8 8.0 0.00 0.00 0.00 96 1016.3
20260906093031 21 60 4.8 8.0 0.00 0.00 0.00 96 1016.1
20260906092519 21 58 3.2 8.0 0.00 0.00 0.00 96 1016.1
20260906092005 21 70 3.2 8.0 0.00 0.00 0.00 95 1016.0
20260906091608 21 64 4.8 8.0 0.00 0.00 0.00 95 1016.2
20260906091510 21 65 4.8 8.0 0.00 0.00 0.00 95 1016.0
20260906091003 21 80 3.2 8.0 0.00 0.00 0.00 95 1016.0
20260906090507 21 66 4.8 9.7 0.00 0.00 0.00 95 1015.9
20260906090107 21 49 6.4 9.7 0.00 0.00 0.00 95 1016.3
20260906090021 21 56 4.8 9.7 0.00 0.00 0.00 95 1016.0
20260906085512 21 59 4.8 6.4 0.00 0.00 0.00 95 1016.0
20260906085012 21 68 4.8 6.4 0.00 0.00 0.00 95 1016.1
20260906084605 21 70 3.2 6.4 0.00 0.00 0.00 95 1016.4
20260906084527 21 60 3.2 6.4 0.00 0.00 0.00 95 1016.1
20260906084014 21 52 3.2 6.4 0.00 0.00 0.00 95 1016.2
20260906083512 21 57 4.8 8.0 0.00 0.00 0.00 95 1016.2
20260906083105 21 60 4.8 9.7 0.00 0.00 0.00 95 1016.4
20260906083030 21 71 4.8 9.7 0.00 0.00 0.00 95 1016.1
20260906082516 21 68 4.8 9.7 0.00 0.00 0.00 94 1016.1
20260906082015 21 63 4.8 9.7 0.00 0.00 0.00 94 1016.0
20260906081604 21 73 4.8 8.0 0.00 0.00 0.00 94 1016.3
20260906081531 21 57 4.8 8.0 0.00 0.00 0.00 94 1016.0
20260906081017 21 51 3.2 9.7 0.00 0.00 0.00 94 1016.0
20260906080504 21 60 3.2 9.7 0.00 0.00 0.00 94 1016.1
20260906080105 21 60 4.8 9.7 0.00 0.00 0.00 94 1016.3
20260906080016 21 62 4.8 9.7 0.00 0.00 0.00 94 1016.2
20260906075507 21 72 6.4 9.7 0.00 0.00 0.00 94 1016.2
20260906075007 21 70 3.2 6.4 0.00 0.00 0.00 94 1016.2
20260906074607 21 15 1.6 6.4 0.00 0.00 0.00 94 1016.5
20260906074523 21 41 1.6 6.4 0.00 0.00 0.00 94 1016.2
20260906074011 21 66 1.6 8.0 0.00 0.00 0.00 94 1016.2
20260906073512 21 74 4.8 8.0 0.00 0.00 0.00 94 1016.1
20260906073104 21 63 4.8 8.0 0.00 0.00 0.00 94 1016.3
20260906073026 21 69 4.8 8.0 0.00 0.00 0.00 94 1016.0
20260906072515 21 64 3.2 8.0 0.00 0.00 0.00 94 1016.0
20260906072013 21 52 4.8 8.0 0.00 0.00 0.00 94 1016.0
20260906071647 21 79 4.8 8.0 0.00 0.00 0.00 94 1016.3
20260906071529 21 64 4.8 8.0 0.00 0.00 0.00 94 1016.0
20260906071014 21 68 3.2 6.4 0.00 0.00 0.00 94 1016.2
20260906070515 21 71 3.2 6.4 0.00 0.00 0.00 94 1016.2
20260906070107 21 75 3.2 4.8 0.00 0.00 0.00 94 1016.6
20260906070032 21 63 1.6 4.8 0.00 0.00 0.00 94 1016.3
20260906065517 21 71 1.6 4.8 0.00 0.00 0.00 94 1016.4
20260906065004 21 65 0.0 0.0 0.00 0.00 0.00 94 1016.4
20260906064600 21 0 0.0 0.0 0.00 0.00 0.00 94 1016.6
20260906064519 21 67 0.0 0.0 0.00 0.00 0.00 94 1016.4
20260906064008 21 72 0.0 3.2 0.00 0.00 0.00 95 1016.4
20260906063512 21 72 0.0 3.2 0.00 0.00 0.00 95 1016.4
20260906063102 21 0 0.0 3.2 0.00 0.00 0.00 95 1016.6
20260906063027 21 75 1.6 3.2 0.00 0.00 0.00 95 1016.4
20260906062512 21 69 0.0 3.2 0.00 0.00 0.00 95 1016.3
20260906062013 20 61 0.0 1.6 0.00 0.00 0.00 95 1016.4
20260906061603 20 61 0.0 3.2 0.00 0.00 0.00 95 1016.8
20260906061529 20 61 0.0 3.2 0.00 0.00 0.00 95 1016.5
20260906061014 20 84 0.0 3.2 0.00 0.00 0.00 95 1016.5
20260906060516 20 53 0.0 0.0 0.00 0.00 0.00 95 1016.5
20260906060105 20 0 0.0 0.0 0.00 0.00 0.00 95 1016.7
20260906060032 20 56 0.0 0.0 0.00 0.00 0.00 95 1016.5
20260906055518 20 70 0.0 0.0 0.00 0.00 0.00 95 1016.3
20260906055014 20 69 0.0 0.0 0.00 0.00 0.00 95 1016.2
20260906054605 20 0 0.0 0.0 0.00 0.00 0.00 95 1016.4
20260906054537 20 70 0.0 0.0 0.00 0.00 0.00 95 1016.2
20260906054022 20 70 0.0 0.0 0.00 0.00 0.00 95 1016.2
20260906053511 20 70 0.0 0.0 0.00 0.00 0.00 95 1016.0
20260906053110 20 0 0.0 0.0 0.00 0.00 0.00 94 1016.3
20260906053020 20 70 0.0 0.0 0.00 0.00 0.00 94 1016.0
20260906052507 20 70 0.0 0.0 0.00 0.00 0.00 94 1016.0
20260906052015 20 79 0.0 3.2 0.00 0.00 0.00 94 1016.0
20260906051604 20 0 0.0 4.8 0.00 0.00 0.00 94 1016.2
20260906051527 20 78 0.0 4.8 0.00 0.00 0.00 94 1015.9
20260906051015 20 65 1.6 6.4 0.00 0.00 0.00 94 1015.9
20260906050519 20 65 1.6 8.0 0.00 0.00 0.00 94 1015.9
20260906050111 20 69 4.8 9.7 0.00 0.00 0.00 94 1016.2
20260906050034 20 54 4.8 9.7 0.00 0.00 0.00 94 1015.8
20260906045514 20 68 4.8 9.7 0.00 0.00 0.00 94 1015.7
20260906045017 20 71 6.4 9.7 0.00 0.00 0.00 94 1015.7
20260906044600 20 78 4.8 12.9 0.00 0.00 0.00 94 1015.9
20260906044533 20 54 4.8 12.9 0.00 0.00 0.00 94 1015.6
20260906044014 20 56 6.4 12.9 0.00 0.00 0.00 94 1015.6
20260906043519 20 66 6.4 11.3 0.00 0.00 0.00 94 1015.6
20260906043106 21 57 6.4 14.5 0.00 0.00 0.00 94 1015.8
20260906043035 21 32 6.4 14.5 0.00 0.00 0.00 94 1015.6
20260906042517 20 65 4.8 14.5 0.00 0.00 0.00 94 1015.5
20260906042009 20 72 4.8 11.3 0.00 0.00 0.00 94 1015.6
20260906041603 21 70 4.8 11.3 0.00 0.00 0.00 94 1015.8
20260906041524 21 74 4.8 11.3 0.00 0.00 0.00 94 1015.5
20260906041013 21 67 4.8 11.3 0.00 0.00 0.00 94 1015.4
20260906040511 21 60 4.8 9.7 0.00 0.00 0.00 94 1015.4
20260906040117 21 46 6.4 11.3 0.00 0.00 0.00 94 1015.7
20260906040031 21 66 6.4 11.3 0.00 0.00 0.00 94 1015.4
20260906035513 21 67 6.4 11.3 0.00 0.00 0.00 94 1015.3
20260906035014 21 73 6.4 11.3 0.00 0.00 0.00 94 1015.3
20260906034607 21 63 6.4 12.9 0.00 0.00 0.00 93 1015.5
20260906034530 21 55 6.4 12.9 0.00 0.00 0.00 93 1015.3
20260906034016 21 58 8.0 12.9 0.00 0.00 0.00 94 1015.3
20260906033517 21 58 6.4 11.3 0.00 0.00 0.00 94 1015.3
20260906033111 21 63 6.4 11.3 0.00 0.00 0.00 94 1015.6
20260906033031 21 58 6.4 11.3 0.00 0.00 0.00 94 1015.3
20260906032518 21 69 6.4 9.7 0.00 0.00 0.00 94 1015.3
20260906032019 21 62 4.8 8.0 0.00 0.00 0.00 93 1015.4
20260906031604 21 63 4.8 9.7 0.00 0.00 0.00 93 1015.6
20260906031533 21 63 4.8 9.7 0.00 0.00 0.00 93 1015.3
20260906031022 21 65 4.8 11.3 0.00 0.00 0.00 93 1015.3
20260906030509 21 67 4.8 11.3 0.00 0.00 0.00 93 1015.3
20260906030020 22 47 3.2 8.0 0.00 0.00 0.00 92 1015.3
20260906025511 22 67 6.4 8.0 0.00 0.00 0.00 92 1015.2
20260906025015 22 58 4.8 8.0 0.00 0.00 0.00 92 1015.2
20260906024600 22 68 4.8 8.0 0.00 0.00 0.00 92 1015.4
20260906024527 22 65 4.8 8.0 0.00 0.00 0.00 92 1015.1
20260906024015 22 64 6.4 11.3 0.00 0.00 0.00 92 1015.1
20260906023503 22 68 4.8 11.3 0.00 0.00 0.00 91 1015.1
20260906023103 22 63 6.4 11.3 0.00 0.00 0.00 91 1015.3
20260906023009 22 72 6.4 11.3 0.00 0.00 0.00 91 1015.0
20260906022504 22 63 4.8 8.0 0.00 0.00 0.00 91 1014.9
20260906022003 22 57 3.2 11.3 0.00 0.00 0.00 90 1014.9
20260906021607 22 66 4.8 11.3 0.00 0.00 0.00 90 1015.1
20260906021520 22 70 4.8 11.3 0.00 0.00 0.00 90 1014.8
20260906021007 23 58 6.4 12.9 0.00 0.00 0.00 89 1014.7
20260906020507 23 64 8.0 14.5 0.00 0.00 0.00 89 1014.7
20260906020108 23 60 6.4 14.5 0.00 0.00 0.00 89 1014.9
20260906020025 23 60 6.4 14.5 0.00 0.00 0.00 88 1014.6
20260906015508 23 60 9.7 14.5 0.00 0.00 0.00 88 1014.6
20260906015010 23 53 9.7 14.5 0.00 0.00 0.00 88 1014.6
20260906014603 23 78 9.7 17.7 0.00 0.00 0.00 88 1014.7
20260906014528 23 39 9.7 17.7 0.00 0.00 0.00 88 1014.5
20260906014012 23 62 9.7 17.7 0.00 0.00 0.00 88 1014.6
20260906013506 23 33 9.7 17.7 0.00 0.00 0.00 87 1014.6
20260906013111 24 70 11.3 17.7 0.00 0.00 0.00 87 1014.8
20260906013008 24 74 11.3 17.7 0.00 0.00 0.00 87 1014.5
20260906012503 24 73 8.0 16.1 0.00 0.00 0.00 87 1014.4
20260906012003 24 62 8.0 16.1 0.00 0.00 0.00 86 1014.3
20260906011608 24 63 11.3 16.1 0.00 0.00 0.00 86 1014.4
20260906011510 25 58 11.3 16.1 0.00 0.00 0.00 86 1014.2
20260906011003 25 72 9.7 17.7 0.00 0.00 0.00 85 1014.2
20260906010508 25 60 8.0 17.7 0.00 0.00 0.00 85 1014.2
20260906010018 25 51 8.0 16.1 0.00 0.00 0.00 85 1014.2
20260906005509 25 43 8.0 19.3 0.00 0.00 0.00 85 1014.1
20260906005009 25 76 11.3 19.3 0.00 0.00 0.00 85 1014.0
20260906004612 25 73 6.4 12.9 0.00 0.00 0.00 85 1014.2
20260906004524 25 65 8.0 12.9 0.00 0.00 0.00 85 1014.0
20260906004012 25 74 6.4 12.9 0.00 0.00 0.00 84 1014.2
20260906003511 26 70 6.4 12.9 0.00 0.00 0.00 84 1014.1
20260906003105 26 66 6.4 9.7 0.00 0.00 0.00 83 1014.1
20260906003028 26 70 6.4 9.7 0.00 0.00 0.00 83 1014.0
20260906002514 26 80 4.8 12.9 0.00 0.00 0.00 83 1013.9
20260906002003 26 68 6.4 12.9 0.00 0.00 0.00 82 1013.8
20260906001601 26 68 8.0 17.7 0.00 0.00 0.00 81 1013.9
20260906001512 26 64 8.0 17.7 0.00 0.00 0.00 81 1013.8
20260906001003 27 57 9.7 17.7 0.00 0.00 0.00 81 1013.6
20260906000503 27 60 8.0 16.1 0.00 0.00 0.00 80 1013.7
20260906000107 27 53 6.4 16.1 0.00 0.00 0.00 80 1013.8
20260906000012 27 43 6.4 16.1 0.00 0.00 0.00 80 1013.7
20260905235507 27 56 8.0 17.7 0.00 0.00 0.00 79 1013.8
20260905235009 28 53 11.3 17.7 0.00 0.00 0.00 77 1013.5
20260905234602 28 70 9.7 16.1 0.00 0.00 0.00 77 1013.6
20260905234515 28 68 11.3 16.1 0.00 0.00 0.00 77 1013.6
20260905234014 28 56 6.4 12.9 0.00 0.00 0.00 76 1013.5
20260905233510 29 68 4.8 12.9 0.00 0.00 0.00 75 1013.7
20260905233059 29 73 4.8 9.7 0.00 0.00 0.00 74 1013.7
20260905233024 29 65 6.4 9.7 0.00 0.00 0.00 74 1013.6
20260905232512 30 63 3.2 11.3 0.00 0.00 0.00 72 1013.6
20260905232012 30 67 4.8 11.3 0.00 0.00 0.00 72 1013.4
20260905231603 30 69 6.4 11.3 0.00 0.00 0.00 71 1013.4
20260905231528 30 58 6.4 11.3 0.00 0.00 0.00 72 1013.2
20260905231003 30 73 4.8 9.7 0.00 0.00 0.00 72 1013.2
20260905230504 30 72 4.8 11.3 0.00 0.00 0.00 71 1013.1
20260905230010 30 54 4.8 11.3 0.00 0.00 0.00 71 1013.1
20260905225504 31 39 3.2 11.3 0.00 0.00 0.00 71 1013.3
20260905225003 31 68 6.4 11.3 0.00 0.00 0.00 70 1013.1
20260905224600 31 58 6.4 11.3 0.00 0.00 0.00 70 1013.2
20260905224516 31 65 4.8 11.3 0.00 0.00 0.00 69 1013.1
20260905224008 31 54 4.8 11.3 0.00 0.00 0.00 69 1013.1
20260905223510 31 75 3.2 12.9 0.00 0.00 0.00 67 1013.1
20260905223105 32 74 4.8 12.9 0.00 0.00 0.00 67 1013.2
20260905223020 32 88 4.8 12.9 0.00 0.00 0.00 67 1013.0
20260905222509 32 67 0.0 11.3 0.00 0.00 0.00 66 1013.0
20260905222010 32 331 0.0 9.7 0.00 0.00 0.00 67 1013.0
20260905221604 32 281 1.6 9.7 0.00 0.00 0.00 68 1013.3
20260905221527 32 281 1.6 9.7 0.00 0.00 0.00 66 1013.1
20260905221013 32 86 1.6 9.7 0.00 0.00 0.00 66 1013.0
20260905220513 32 359 3.2 12.9 0.00 0.00 0.00 67 1013.0
20260905220107 32 96 3.2 12.9 0.00 0.00 0.00 65 1013.2
20260905220029 32 65 3.2 12.9 0.00 0.00 0.00 64 1012.9
20260905215504 33 324 1.6 6.4 0.00 0.00 0.00 66 1012.9
20260905215006 33 120 1.6 6.4 0.00 0.00 0.00 66 1012.9
20260905214604 32 118 1.6 8.0 0.00 0.00 0.00 66 1013.2
20260905214513 32 118 1.6 8.0 0.00 0.00 0.00 66 1013.0
20260905214007 32 324 0.0 8.0 0.00 0.00 0.00 67 1012.9
20260905213509 32 66 1.6 8.0 0.00 0.00 0.00 66 1012.9
20260905213107 32 86 3.2 8.0 0.00 0.00 0.00 66 1013.1
20260905213017 32 46 3.2 8.0 0.00 0.00 0.00 66 1012.9
20260905212509 32 56 1.6 9.7 0.00 0.00 0.00 66 1012.9
20260905212008 32 54 4.8 11.3 0.00 0.00 0.00 65 1012.8
20260905211605 32 70 6.4 11.3 0.00 0.00 0.00 65 1013.0
20260905211527 33 45 6.4 11.3 0.00 0.00 0.00 65 1012.8
20260905211011 32 56 0.0 8.0 0.00 0.00 0.00 67 1012.9
20260905210511 32 31 4.8 8.0 0.00 0.00 0.00 66 1013.0
20260905210123 32 15 1.6 6.4 0.00 0.00 0.00 66 1013.2
20260905210029 32 44 3.2 6.4 0.00 0.00 0.00 67 1013.0
20260905205515 32 44 0.0 8.0 0.00 0.00 0.00 66 1013.0
20260905205013 33 50 0.0 9.7 0.00 0.00 0.00 66 1013.0
20260905204604 33 20 1.6 9.7 0.00 0.00 0.00 64 1013.2
20260905204531 33 112 1.6 9.7 0.00 0.00 0.00 66 1013.1
20260905204004 33 63 4.8 9.7 0.00 0.00 0.00 65 1013.0
20260905203508 33 88 3.2 11.3 0.00 0.00 0.00 66 1013.0
20260905203104 33 68 3.2 11.3 0.00 0.00 0.00 66 1013.1
20260905203014 33 47 3.2 11.3 0.00 0.00 0.00 66 1013.0
20260905202507 33 70 3.2 6.4 0.00 0.00 0.00 66 1013.2
20260905202008 33 81 0.0 8.0 0.00 0.00 0.00 65 1013.1
20260905201602 33 0 3.2 11.3 0.00 0.00 0.00 67 1013.3
20260905201520 33 316 3.2 11.3 0.00 0.00 0.00 65 1013.1
20260905201010 33 76 4.8 11.3 0.00 0.00 0.00 64 1013.0
20260905200509 33 319 4.8 9.7 0.00 0.00 0.00 66 1013.2
20260905200107 32 293 1.6 14.5 0.00 0.00 0.00 69 1013.3
20260905200033 32 89 1.6 14.5 0.00 0.00 0.00 70 1013.1
20260905195514 32 80 3.2 14.5 0.00 0.00 0.00 67 1013.2